Location: El Altar
(10.0561°N, 67.0847°W)
Time: 06:00:42
(UTC+00:00)

Daily predictions for brighter satellites

Satellite Brightness Start Highest point End
(mag) Time Altitude Azimuth Time Altitude Azimuth Time Altitude Azimuth
Cosmos 2360 Rocket 3.8 22:53:20 10° NW 22:58:32 40° WSW 23:03:45 10° S
KORONAS-FOTON 3.7 22:58:13 10° N 23:02:01 67° E 23:05:50 10° SSE
Iridium 4 Rocket 4.4 23:01:08 10° NE 23:04:24 20° E 23:07:51 10° SE
COSMOS 2428 3.2 22:59:11 10° N 23:04:29 39° ENE 23:09:47 10° SE
Cosmos 2173 Rocket 4.1 22:58:22 10° N 23:04:35 59° E 23:10:43 10° SSE
Cosmos 1726 2.4 23:03:02 10° SSW 23:06:30 66° W 23:09:56 10° N
Cosmos 1954 Rocket 4.0 23:01:33 10° N 23:06:51 81° ENE 23:12:09 10° SSE
Cosmos 1802 Rocket 4.4 23:01:54 10° NNE 23:07:56 45° E 23:14:00 10° SSE
CENTAUR R/B 3.8 23:00:12 10° N 23:08:28 39° ENE 23:16:36 10° SE
Ariane H10 4.1 22:57:23 10° WSW 23:08:57 41° SSW 23:12:08 10° ESE
CZ-4B R/B 3.2 23:06:01 10° S 23:09:38 63° W 23:13:26 10° NNW
Cosmos 1302 Rocket 4.1 23:05:06 10° SSW 23:10:21 86° WNW 23:15:38 10° NNE
Cosmos 1733 Rocket 3.5 23:06:59 10° SSE 23:10:56 36° E 23:14:53 10° NNE
Meteor 1-21 4.2 23:08:13 10° N 23:13:50 65° E 23:19:32 10° SSE
Cosmos 1766 3.4 23:11:37 10° SSE 23:15:14 44° E 23:18:50 10° NNE
Star 48B S/N 10042-17 4.4 23:15:33 10° NW 23:18:16 52° NNE 23:20:13 16° E
MINOTAUR 4 R/B 3.8 23:17:29 10° NNE 23:20:51 84° ESE 23:24:14 10° S
Cosmos 1707 4.0 23:17:45 10° NNW 23:21:18 43° W 23:24:52 10° SSW
Cosmos 1703 Rocket 3.7 23:18:14 10° N 23:22:34 78° W 23:26:54 10° S
Cosmos 2263 Rocket 2.6 23:17:46 10° S 23:22:51 37° ESE 23:27:53 10° NE
CZ-4B DEB 4.2 23:18:49 10° SSE 23:24:20 74° ENE 23:29:51 10° N
Ariane H10 3.9 23:21:27 10° WSW 23:24:34 27° S 23:26:19 15° SE
Cosmos 2100 Rocket 4.2 23:20:49 10° N 23:27:03 76° W 23:33:14 10° S
YAOGAN 1 2.6 23:25:03 10° SSE 23:29:14 53° ENE 23:33:25 10° N
SWIFT 2.5 23:25:56 10° WSW 23:29:56 54° SSE 23:32:14 23° E
OAO 3 Rocket 3.2 23:37:34 10° WSW 23:42:11 72° NW 23:45:31 18° NE
GPS 2-14 Rocket1 3.0 23:39:44 10° W 23:43:23 51° SSW 23:44:49 31° SE
NOSS 0 Rocket 4.0 23:37:54 10° N 23:43:52 53° ENE 23:49:02 14° SSE
Cosmos 1992 Rocket 3.9 23:39:18 10° S 23:44:29 86° ESE 23:49:40 10° NNE
GPS 2-17 Rocket1 3.0 23:40:56 10° WSW 23:45:37 89° NW 23:47:43 32° ENE
BLOCK DM-SL R/B 4.2 23:42:25 10° WSW 23:46:06 26° S 23:47:55 20° SE
Cosmos 1271 Rocket 3.5 23:45:01 10° SSW 23:48:43 52° W 23:52:22 10° N
Cosmos 2233 Rocket 4.1 23:46:12 10° N 23:52:14 53° E 23:58:18 10° SSE
Meteor 1-12 Rocket 4.2 23:46:48 10° S 23:52:40 73° E 23:58:23 10° N
PAYLOAD B 4.3 23:47:10 10° S 23:52:40 79° WSW 23:58:12 10° NNW
Cosmos 2237 Rocket 2.6 23:49:15 10° N 23:54:23 37° ENE 23:55:06 35° E
Helios 1B 4.4 23:50:07 10° NNE 23:54:24 65° ESE 23:58:40 10° S
